Regional Weather Roundup
Issued by NWS

Home | Current Version | Previous Version | Text Only | Print | Product List | Glossary Off
Versions: 1 2 3 4 5 6 7 8 9 10 11 12 13 14 15 16 17 18 19 20 21 22 23 24 25 26 27 28 29 30 31 32 33 34 35 36 37 38 39 40 41 42 43 44 45 46 47 48 49 50

000
ASUS43 KBIS 192302
RWRND

NORTH DAKOTA REGIONAL WEATHER ROUNDUP
NATIONAL WEATHER SERVICE BISMARCK ND
500 PM CST MON FEB 19 2018

NOTE: "FAIR" INDICATES FEW OR NO CLOUDS BELOW 12,000 FEET WITH NO
SIGNIFICANT WEATHER AND/OR OBSTRUCTIONS TO VISIBILITY.


NDZ001>003-009>011-017-200000-
NORTHWEST NORTH DAKOTA

CITY           SKY/WX    TMP DP  RH WIND       PRES   REMARKS
WILLISTON      CLOUDY     3  -3  76 SW5       30.17R WCI  -6
MINOT          CLOUDY     8  -6  52 SW3       30.16R
MINOT AFB      MOSUNNY    7  -5  57 W6        30.16R WCI  -3
$$

NDZ018>021-031>035-040>046-200000-
SOUTHWEST NORTH DAKOTA

CITY           SKY/WX    TMP DP  RH WIND       PRES   REMARKS
BISMARCK       LGT SNOW   5  -2  72 NE10      30.17R WCI -10
DICKINSON      LGT SNOW   3  -3  76 NE7       30.06R VSB 3/4 WCI  -9
GARRISON         N/A      5  -8  55 CALM      30.14R
HETTINGER ARPT LGT SNOW   2  -5  72 NE13      30.05R WCI -15
$$

NDZ004>008-012>016-024-026-027-054-200000-
NORTHEAST NORTH DAKOTA

CITY           SKY/WX    TMP DP  RH WIND       PRES   REMARKS
GRAND FORKS    CLOUDY     6  -5  60 N17       30.23S WCI -13
GRND FRKS AFB  FAIR       5  -6  59 N13       30.22F WCI -11
$$

NDZ022-023-025-028>030-036>039-047>053-200000-
SOUTHEAST NORTH DAKOTA

CITY           SKY/WX    TMP DP  RH WIND       PRES   REMARKS
FARGO          CLOUDY     8  -1  66 N23       30.14F WCI -13
JAMESTOWN      LGT SNOW   5  -3  69 N18       30.13S WCI -15
$$





USA.gov is the U.S. government's official web portal to all federal, state and local government web resources and services.